This demonstration page uses our WeatherBlox Daily Observations layout. Learn more.

Left ArrowRight Arrow

39.92423, -83.80882

Hourly Observations for February 2, 2021

Temp ( °F °C ) Dew Point ( °F °C ) Humidity (%) Winds ( mph kmh ) Pressure ( in mb ) Visibility ( mi km ) Precip ( " mm )
12:49 am 00:49 Cloudy with Light Snow 25 -4 25 -4 100 100 NNW 17 28 30.09 1019 3 4 0.00 0.00
12:56 am 00:56 Cloudy with Light Snow 25 -3.9 24 -4.4 96 96 NNW 15 24 30.07 1018 4 6 0.00 0.00
1:56 am 01:56 Cloudy with Light Snow 24 -4.4 23 -5 96 96 NNW 14 22 30.07 1018 7 11 0.00 0.00
2:54 am 02:54 Cloudy with Light Snow 25 -4 21 -6 86 86 NNW 14 22 30.10 1019 7 11 0.00 0.00
2:56 am 02:56 Cloudy with Light Snow 24 -4.4 22 -5.6 91 91 NNW 13 20 30.07 1018 7 11 0.00 0.00
3:27 am 03:27 Cloudy with Light Snow 23 -5 21 -6 93 93 NNW 14 22 30.11 1020 9 14 0.00 0.00
3:56 am 03:56 Cloudy with Light Snow 23 -5 21 -6.1 92 92 NNW 15 24 30.09 1019 4 6 0.00 0.00
4:05 am 04:05 Cloudy with Light Snow 23 -5 21 -6 93 93 NNW 15 24 30.12 1020 4 6 0.00 0.00
4:26 am 04:26 Cloudy with Light Snow 23 -5 21 -6 93 93 NNW 14 22 30.12 1020 5 8 0.00 0.00
4:56 am 04:56 Cloudy with Light Snow 23 -5 21 -6.1 92 92 NNW 13 20 30.08 1019 6 10 0.00 0.00
5:56 am 05:56 Mostly Cloudy 21 -6.1 18 -7.8 88 88 NW 12 19 30.09 1019 10 16 0.00 0.00
6:56 am 06:56 Mostly Clear 19 -7.2 15 -9.4 84 84 NNW 13 20 30.10 1019 10 16 0.00 0.00
7:56 am 07:56 Sunny 16 -8.9 14 -10 92 92 NW 10 17 30.10 1019 10 16 0.00 0.00
8:56 am 08:56 Sunny 16 -8.9 13 -10.6 88 88 NW 13 20 30.11 1020 10 16 0.00 0.00
9:56 am 09:56 Sunny 18 -7.8 14 -10 84 84 NNW 14 22 30.11 1020 10 16 0.00 0.00
10:56 am 10:56 Sunny 21 -6.1 15 -9.4 78 78 NW 12 19 30.10 1019 10 16 0.00 0.00
11:56 am 11:56 Sunny 24 -4.4 15 -9.4 68 68 NNW 14 22 30.09 1019 10 16 0.00 0.00
12:56 pm 12:56 Sunny 25 -3.9 14 -10 63 63 NW 18 30 30.08 1019 10 16 0.00 0.00
1:56 pm 13:56 Sunny 26 -3.3 14 -10 60 60 NNW 18 30 30.07 1018 10 16 0.00 0.00
2:56 pm 14:56 Sunny 27 -2.8 13 -10.6 55 55 NW 20 31 30.06 1018 10 16 0.00 0.00
3:56 pm 15:56 Sunny 27 -2.8 16 -8.9 63 63 NNW 14 22 30.06 1018 10 16 0.00 0.00
4:56 pm 16:56 Sunny 27 -2.8 18 -7.8 69 69 NNW 16 26 30.07 1018 10 16 0.00 0.00
5:56 pm 17:56 Sunny 25 -3.9 18 -7.8 75 75 WNW 7 11 30.07 1018 10 16 0.00 0.00
6:56 pm 18:56 Clear 24 -4.4 18 -7.8 77 77 WNW 8 13 30.07 1018 10 16 0.00 0.00
7:56 pm 19:56 Clear 22 -5.6 19 -7.2 89 89 WNW 8 13 30.09 1019 10 16 0.00 0.00
8:56 pm 20:56 Clear 22 -5.6 18 -7.8 85 85 NW 9 15 30.09 1019 10 16 0.00 0.00
9:56 pm 21:56 Clear 22 -5.6 19 -7.2 89 89 WNW 12 19 30.09 1019 10 16 0.00 0.00
10:56 pm 22:56 Clear 20 -6.7 19 -7.2 96 96 WNW 13 20 30.09 1019 10 16 0.00 0.00
11:56 pm 23:56 Clear 19 -7.2 19 -7.2 100 100 WNW 10 17 30.09 1019 10 16 0.00 0.00

Powered by AerisWeather